カタログに戻る

COSMOS 2251 DEB

運用中LEO
NORAD 34544·DEBRIS·🇷🇺 Russia

打ち上げ Jun 16, 1993 から Plesetsk Cosmodrome

Loading…

次のパス (今後24時間)

TLE

最新Source: Space-Track

元期: Sep 14, 2026, 01:59 UTC

1 34544U 93036UE  26257.08270100  .00000349  00000-0  33530-3 0  9994
2 34544  73.9135 118.1295 0381546  95.6114  54.1345 13.55046974866118

AllMySatでCOSMOS 2251 DEBをリアルタイム追跡

Download on the App Store